Flag for Germany Weather past 2 weeks in Strausberg, Brandenburg, Germany

Now
75 °F

Passing clouds.


Feels Like: 77 °F
Forecast: 57 / 81 °F
Wind: 8 mph from East

Location: Berlin-Schoenefeld

Current Time: Aug 1, 2015 at 2:50:39 PM

Latest Report: Aug 1, 2015 at 2:20 PM


Visibility: N/A

Pressure: 30.04 "Hg

Humidity: 31%

Dew point: 43 °F

Location of StrausbergLocation

Historic Weather in Strausberg — Graph

°F

Strausberg temperature yesterday

Maximum temperature yesterday: 66 °F (at 1:50 PM)
Minimum temperature yesterday: 46 °F (at 4:20 AM)
Average temperature yesterday: 58 °F

Past Weeks' High & Low Weather Summary

 TemperatureHumidityPressure
High90 °F (Jul 17, 5:50 PM)100% (Jul 19, 12:50 PM)30.09 "Hg (Jul 19, 12:50 PM)
Low45 °F (Aug 1, 2:50 AM)26% (Jul 25, 4:20 PM)29.53 "Hg (Jul 25, 6:50 AM)
Average67 °F65%29.84 "Hg
* Reported Jul 17 1:20 PM — Aug 1 1:20 PM, Strausberg, Weather by CustomWeather, © 2015

Note: Actual official high and low records may vary slightly from our data, if they occured in-between our weather recording intervals... More about our weather records

Advertising

Strausberg weather history for previous 24 hours

 ConditionsComfort  
Time TempWeatherWind HumidityBarometerVisibility
1:20 PM
Sat, Aug 1
75 °FPassing clouds.9 mph34%30.04 "HgN/A
12:50 PM72 °FPassing clouds.10 mph38%30.04 "HgN/A
12:20 PM72 °FPassing clouds.10 mph38%30.07 "HgN/A
11:50 AM72 °FPassing clouds.9 mph38%30.07 "HgN/A
11:20 AM70 °FPassing clouds.10 mph40%30.07 "HgN/A
10:50 AM66 °FPassing clouds.10 mph46%30.07 "HgN/A
10:20 AM64 °FSunny.13 mph49%30.07 "Hg10 mi
9:50 AM64 °FSunny.10 mph49%30.07 "Hg10 mi
9:20 AM63 °FSunny.9 mph56%30.07 "Hg10 mi
8:50 AM61 °FSunny.9 mph59%30.07 "Hg10 mi
8:20 AM57 °FSunny.7 mph72%30.07 "Hg10 mi
7:50 AM54 °FSunny.5 mph82%30.07 "Hg10 mi
7:20 AM50 °FSunny.5 mph88%30.07 "Hg10 mi
6:50 AM48 °FSunny.5 mph94%30.09 "Hg10 mi
6:20 AM46 °FClear.2 mph100%30.09 "Hg10 mi
5:50 AM46 °FClear.3 mph93%30.09 "Hg10 mi
5:20 AM45 °FClear.3 mph100%30.09 "Hg10 mi
4:50 AM45 °FClear.2 mph100%30.09 "Hg10 mi
4:20 AM45 °FClear.3 mph93%30.09 "Hg10 mi
3:50 AM45 °FClear.2 mph100%30.09 "Hg10 mi
3:20 AM45 °FClear.3 mph93%30.09 "Hg10 mi
2:50 AM45 °FClear.2 mph93%30.09 "Hg10 mi
2:20 AM46 °FClear.1 mph93%30.09 "Hg10 mi
1:50 AM46 °FClear.1 mph93%30.09 "Hg10 mi
1:20 AM48 °FClear.1 mph87%30.09 "Hg10 mi
12:50 AM46 °FClear.1 mph87%30.09 "Hg10 mi
12:20 AM48 °FClear.1 mph87%30.09 "Hg10 mi
11:20 PM
Fri, Jul 31
52 °FClear.2 mph77%30.07 "Hg10 mi
10:50 PM54 °FClear.2 mph67%30.07 "Hg10 mi
10:20 PM52 °FClear.1 mph72%30.07 "Hg10 mi
9:50 PM57 °FSunny.2 mph59%30.07 "Hg10 mi
9:20 PM59 °FSunny.6 mph55%30.07 "Hg10 mi
8:50 PM59 °FSunny.8 mph55%30.07 "Hg10 mi
8:20 PM63 °FSunny.6 mph49%30.07 "Hg10 mi
7:50 PM64 °FSunny.8 mph43%30.07 "Hg10 mi
7:20 PM63 °FSunny.10 mph42%30.07 "Hg10 mi
6:50 PM64 °FSunny.12 mph46%30.07 "Hg10 mi
6:20 PM66 °FPassing clouds.13 mph40%30.07 "HgN/A
5:50 PM66 °FPassing clouds.15 mph43%30.07 "HgN/A
5:20 PM66 °FPassing clouds.13 mph40%30.07 "HgN/A
4:50 PM64 °FPassing clouds.9 mph49%30.07 "HgN/A
4:20 PM64 °FPassing clouds.14 mph46%30.07 "HgN/A
3:50 PM66 °FSunny.14 mph37%30.07 "Hg10 mi
3:20 PM66 °FSunny.17 mph40%30.07 "Hg10 mi
2:50 PM64 °FPartly sunny.14 mph46%30.09 "HgN/A
2:20 PM63 °FPartly sunny.15 mph52%30.09 "HgN/A
Weather by CustomWeather, © 2015

See weather overviewHow to use our weather pages